Temperature
20 20 20 20 18 16 18 19 19 19 19 19 19 18 18 17 17 17 17 17 17 17 17 17 17 17 17 17 17 17 17 17 17 17 17 17 17 18 18 18 18 18 17 18 18 18 18 18 18
20 21 21 20 17 17 18 18 19 19 19 19 19 18 18 17 17 17 17 17 17 17 17 17 17 17 17 17 17 17 17 17 17 17 17 17 17 17 17 17 17 17 17 17 17 18 18 18 17
21 21 21 17 17 18 19 19 18 19 19 19 19 18 18 17 17 17 17 17 17 17 17 17 17 17 17 17 17 17 17 17 17 17 17 17 17 17 17 17 17 17 17 17 17 17 17 17 17
21 21 20 17 18 18 19 19 19 19 19 19 18 17 17 17 17 17 17 17 17 17 17 17 17 17 17 17 17 17 17 17 17 17 17 17 17 17 17 17 17 17 17 17 17 17 17 17 17
21 21 17 17 18 19 18 19 19 19 19 19 18 17 17 17 18 18 17 17 17 17 17 17 17 17 17 17 17 17 17 17 17 16 16 17 17 17 17 17 17 17 17 17 17 17 17 17 17
21 18 17 17 19 19 19 19 19 19 18 18 18 17 17 17 18 17 17 17 17 17 17 17 17 17 17 17 16 17 17 16 16 16 16 16 16 17 17 17 16 16 16 16 16 16 17 17 17
20 16 17 18 18 19 20 20 19 18 18 18 19 17 17 17 18 17 17 17 17 17 17 17 17 16 16 16 16 16 16 16 16 16 16 16 16 16 16 16 16 16 16 16 16 16 16 16 16
21 16 18 18 18 19 20 20 20 19 19 19 19 17 17 18 17 17 17 17 17 17 17 17 16 16 16 16 16 16 16 16 16 16 16 16 16 16 16 16 16 16 16 16 16 16 16 16 16
21 17 17 18 18 19 20 20 20 20 19 18 18 18 18 18 17 17 17 17 17 17 16 16 16 16 16 16 16 16 16 16 16 16 16 16 16 16 16 16 16 16 16 16 16 16 16 16 16
20 17 19 19 19 19 19 20 19 19 18 18 18 18 18 18 18 17 17 17 17 17 17 16 16 16 16 16 16 16 16 16 16 16 16 16 16 16 15 15 15 15 15 15 15 15 15 15 15
19 18 19 20 20 20 20 20 20 19 18 18 18 18 18 18 18 18 17 17 17 17 17 16 16 16 16 16 16 16 16 16 16 16 16 16 16 15 15 15 15 15 15 15 15 15 15 15 15
19 19 20 20 21 20 20 20 19 19 19 20 19 19 18 18 17 17 17 17 17 17 17 16 16 16 16 16 16 16 16 16 16 15 15 16 16 15 15 15 15 15 15 15 15 15 15 15 15
19 20 20 20 21 20 20 20 19 19 19 19 19 18 18 18 18 17 17 17 17 17 17 17 16 16 16 16 16 16 16 16 16 15 15 15 15 15 15 15 15 15 15 15 15 15 15 15 15
20 20 20 20 20 20 20 19 19 18 19 19 18 18 18 17 17 17 17 17 17 17 17 16 16 16 16 16 16 16 15 15 15 15 15 15 15 15 15 15 15 15 15 15 15 15 15 15 14
20 19 19 20 20 20 20 18 18 18 18 18 18 18 17 17 17 17 17 17 17 17 16 16 16 16 16 16 16 16 15 15 15 15 15 15 15 15 15 15 15 15 15 15 14 15 15 15 14
20 19 18 19 19 20 19 18 18 18 18 17 17 17 17 17 17 17 17 17 17 17 16 16 16 16 16 16 16 16 15 15 15 15 15 15 15 15 15 15 15 15 14 14 14 14 14 14 14
18 18 18 19 19 19 19 18 17 18 17 17 17 17 17 17 17 17 17 17 17 17 16 16 16 16 16 16 16 15 15 15 15 15 15 15 15 15 15 15 14 14 14 14 14 14 14 14 14
18 18 18 19 19 18 18 17 17 17 17 16 16 17 17 17 17 17 17 17 17 16 16 16 16 16 16 16 15 15 15 15 15 15 15 15 15 15 15 14 14 14 14 14 14 14 14 14 14
19 19 18 18 19 18 17 17 17 16 16 16 16 16 16 17 17 17 17 17 17 17 16 16 16 16 16 16 16 15 15 15 15 15 15 15 14 15 14 14 14 14 14 14 14 14 14 14 14
19 18 18 18 18 18 17 17 16 16 16 16 16 16 16 17 17 17 17 17 17 17 16 16 16 16 16 16 15 15 15 15 15 15 14 14 14 14 14 14 14 14 14 14 14 14 14 13 13
19 18 18 18 18 18 17 17 16 16 16 16 16 16 16 17 17 17 17 17 17 16 16 16 16 16 16 15 15 15 15 15 15 15 14 14 14 14 14 14 14 14 14 14 14 14 14 14 13
19 19 19 19 17 16 17 16 16 15 15 15 15 16 16 16 17 17 17 17 17 16 16 16 16 16 16 15 15 15 15 15 15 14 14 14 14 14 14 14 14 14 14 13 13 13 13 13 13
19 19 18 18 17 16 16 16 15 15 15 15 15 16 16 17 17 17 17 17 16 16 16 16 16 16 15 15 15 15 15 15 14 14 14 14 14 14 14 14 13 13 13 13 13 13 13 13 13
18 17 16 15 15 16 16 16 15 14 15 16 15 16 16 17 17 17 17 16 16 16 16 16 16 16 15 15 15 15 15 15 14 14 14 14 14 14 14 13 13 13 13 13 13 13 13 13 13
17 16 15 16 15 15 16 15 15 16 15 16 16 16 17 17 17 17 16 16 16 16 16 16 16 15 15 15 15 15 15 14 14 14 14 14 14 14 14 13 13 13 13 13 13 13 13 13 13
17 16 16 16 15 15 15 15 15 16 16 17 17 17 17 17 17 17 17 17 16 16 16 16 15 15 15 15 15 15 14 14 14 14 14 14 14 13 13 13 13 13 13 13 13 13 13 13 13
17 16 16 14 15 15 15 15 15 16 16 16 16 16 17 17 17 17 17 17 16 16 16 16 15 15 15 15 15 14 14 14 14 14 14 14 13 13 13 13 13 13 13 13 13 13 12 12 12
17 15 13 14 15 15 15 15 15 16 16 15 15 15 16 17 17 17 17 16 16 16 16 15 15 15 15 15 14 14 14 14 14 14 14 13 13 13 13 13 13 13 13 13 12 12 12 12 12
16 15 14 13 14 14 15 15 16 15 15 15 15 16 17 17 17 17 17 16 16 16 16 15 15 15 15 14 14 14 14 14 14 13 13 13 13 13 13 13 13 12 12 12 12 12 12 12 12
17 16 14 15 14 13 13 14 16 15 15 15 15 16 17 17 17 16 16 16 16 15 15 15 15 14 14 14 14 14 14 13 13 13 13 13 13 13 13 13 12 12 12 12 12 12 12 12 12
Wind_Speed
2 4 3 4 6 6 3 2 1 2 3 3 4 7 7 5 3 2 2 0 0 0 1 2 4 5 6 7 7 8 8 9 9 9 9 9 9 9 9 9 10 11 11 12 12 12 11 11 10
1 2 4 5 5 4 2 1 2 2 4 4 5 5 6 4 2 2 0 1 1 1 1 2 4 5 6 7 7 8 8 8 9 9 9 9 9 8 8 9 10 10 11 11 12 12 11 11 11
2 3 4 5 4 4 2 1 2 3 3 2 4 5 4 2 2 2 2 2 2 2 2 2 4 5 6 7 8 8 8 8 9 9 9 9 9 8 8 9 10 10 10 11 11 11 11 11 11
4 5 5 6 4 1 2 2 3 4 3 4 4 4 3 2 2 2 3 3 3 2 2 2 4 5 6 7 8 8 8 8 9 9 9 9 10 11 11 11 11 10 11 11 11 11 11 12 12
4 5 6 4 2 1 0 1 3 4 3 3 4 4 2 4 3 4 4 3 3 1 2 2 4 6 6 7 7 8 9 9 9 10 10 10 11 13 13 12 11 11 11 11 11 11 11 12 12
5 5 5 3 2 2 1 2 3 4 4 3 4 4 1 2 3 4 4 3 2 2 2 3 4 6 6 7 7 8 9 9 9 10 10 11 12 12 12 11 11 11 11 11 11 12 12 12 12
5 5 4 3 1 1 1 2 3 4 4 3 4 4 1 1 1 3 4 3 3 3 3 4 4 5 6 6 7 8 9 9 10 10 11 11 12 12 11 11 11 11 11 11 11 12 12 12 12
5 5 4 2 3 0 1 2 2 4 3 3 4 5 3 3 3 4 4 4 3 3 3 3 4 5 5 6 7 8 9 9 10 10 10 11 11 11 11 10 10 10 10 10 11 12 12 12 12
4 5 3 3 4 1 1 3 2 3 5 3 2 2 3 6 7 6 4 4 3 2 3 3 3 4 4 5 6 7 8 8 9 9 10 10 9 8 8 10 11 10 11 11 11 13 13 12 12
5 4 3 3 4 3 3 3 4 4 4 3 4 4 6 7 7 6 4 2 1 1 1 2 2 3 4 4 5 6 6 7 7 7 8 8 8 8 8 10 11 11 11 11 12 12 12 10 9
4 4 2 1 3 4 4 3 3 7 2 3 5 6 7 6 6 5 3 2 2 1 1 1 2 2 3 3 4 4 5 5 6 7 7 7 7 7 8 7 8 9 10 9 9 9 9 8 7
3 1 2 1 2 3 4 4 4 4 3 4 7 9 8 7 5 5 4 2 1 2 1 1 2 2 2 3 3 4 3 4 4 5 6 6 5 5 5 5 6 7 6 7 7 6 7 8 8
3 1 2 3 4 4 5 4 4 1 2 6 8 9 8 7 5 3 3 3 2 2 1 1 2 2 2 3 2 3 3 3 4 5 5 6 4 4 4 5 6 6 6 6 6 6 6 6 7
2 3 2 2 3 2 5 2 3 1 4 8 8 7 6 6 4 3 3 2 2 2 1 1 2 2 3 2 2 2 3 4 4 5 5 6 5 4 4 5 5 5 5 6 6 6 5 5 5
4 4 3 2 1 1 5 3 1 3 7 7 6 6 5 4 3 3 3 3 2 2 1 1 2 3 3 2 2 2 3 4 4 4 5 6 6 5 5 4 4 4 5 6 6 6 6 5 5
4 3 1 3 1 2 5 2 3 4 7 7 5 5 4 3 3 3 2 2 2 2 2 1 3 4 3 2 2 3 3 4 4 4 5 5 5 6 5 4 3 4 5 5 4 4 5 5 4
3 1 1 3 1 2 4 4 3 5 7 7 6 5 5 3 2 2 2 3 3 3 3 3 3 4 3 3 3 3 4 4 4 4 4 4 5 5 5 3 3 4 4 4 3 4 3 4 4
3 2 2 3 1 3 3 4 2 5 6 6 5 5 4 4 5 3 2 2 3 3 3 3 4 3 3 3 3 3 4 3 4 3 3 4 4 5 4 3 3 4 4 3 3 4 4 3 3
4 3 3 3 1 3 3 3 4 4 5 5 5 5 5 5 3 2 2 2 3 3 3 3 4 3 3 2 2 2 2 2 2 2 4 4 4 4 4 3 3 3 3 2 3 3 3 3 2
3 2 2 2 1 3 2 3 3 3 6 6 7 7 7 4 2 2 2 3 3 4 3 3 3 3 3 2 2 2 2 1 1 2 3 4 4 4 3 3 2 2 2 3 2 2 2 1 2
2 4 4 3 1 2 1 3 3 2 2 3 5 6 6 7 6 4 3 3 3 3 4 4 4 4 3 3 3 3 3 3 3 3 2 2 3 3 3 3 3 2 2 2 2 2 2 2 1
4 4 4 3 2 2 1 3 5 3 2 4 4 5 6 6 6 5 4 4 4 4 3 3 3 3 3 4 4 4 3 2 1 0 0 1 2 3 3 3 2 2 1 1 1 2 1 2 1
4 1 2 2 3 0 1 2 6 2 4 6 6 7 7 7 7 6 6 6 4 3 3 3 3 3 3 3 5 5 3 2 1 1 1 1 2 2 2 2 2 1 1 1 1 1 1 1 2
3 5 5 4 3 1 4 4 6 4 6 5 6 7 7 7 6 6 5 4 3 3 3 3 4 2 2 3 3 4 4 3 2 1 1 0 1 1 1 1 1 1 1 1 1 1 1 1 1
5 5 3 3 2 5 2 3 7 6 6 8 8 8 8 7 7 6 5 5 4 4 4 4 4 3 3 3 3 4 5 5 4 3 2 1 0 1 1 0 0 0 1 1 1 1 1 1 1
3 7 6 4 4 4 2 5 6 5 3 4 5 5 6 7 6 6 7 6 6 6 5 5 5 4 4 4 4 3 4 3 3 3 3 3 2 2 2 1 1 1 1 1 1 1 1 1 1
5 3 5 5 2 2 4 5 6 1 1 1 3 4 6 7 7 7 6 5 5 5 6 6 6 5 4 4 4 4 3 3 4 3 3 3 2 2 1 1 1 1 1 1 1 1 1 1 1
4 7 5 4 3 3 5 5 4 4 3 2 3 5 6 5 5 5 5 5 5 5 5 5 5 5 4 3 4 4 4 4 3 3 3 3 2 2 1 1 2 1 1 1 1 1 1 1 1
3 4 4 4 4 4 3 6 5 6 5 5 5 6 6 6 6 6 5 5 4 3 4 4 4 3 2 3 3 3 3 3 3 3 3 3 2 2 2 2 2 2 2 2 2 2 1 1 1
3 5 6 4 3 4 3 6 5 4 5 5 5 5 4 4 4 4 4 3 3 3 3 3 3 3 3 3 2 2 2 2 3 2 2 2 2 2 2 2 2 2 2 2 3 3 2 2 2
Wind_Direction
351 76 81 58 54 54 59 358 5 60 54 44 62 80 89 81 88 123 280 200 165 330 347 36 53 59 62 61 66 65 64 63 65 68 68 69 72 74 76 76 80 82 84 87 88 86 86 87 87
70 87 59 61 80 76 10 344 68 91 129 128 73 71 70 63 65 107 9 245 108 81 47 59 65 60 62 65 69 66 66 64 64 66 66 63 68 73 80 84 84 84 85 86 86 84 85 85 83
91 55 76 68 87 132 160 194 134 95 108 97 73 61 82 95 112 165 213 164 95 61 45 47 70 62 64 69 71 69 66 66 67 67 65 60 59 68 86 91 88 86 85 86 86 84 83 82 82
80 48 55 69 77 145 171 172 151 118 70 49 87 67 54 25 151 166 135 121 104 57 41 43 69 68 68 71 71 71 68 69 69 67 64 62 61 69 84 89 88 85 86 87 88 85 82 81 80
60 72 63 57 40 10 88 135 121 100 83 59 84 90 40 356 74 109 120 119 113 65 41 49 71 72 71 72 70 71 68 69 71 70 66 63 65 70 78 83 84 82 82 84 86 83 83 81 79
54 63 80 82 30 16 44 106 102 89 95 95 101 103 47 20 102 124 125 112 97 79 48 44 54 68 70 71 70 72 69 67 69 69 67 64 66 70 73 78 81 78 78 79 80 79 81 79 78
97 87 107 123 96 40 124 129 123 117 113 145 135 109 79 14 133 127 116 96 72 67 55 44 42 50 58 61 63 68 68 64 65 66 67 65 63 67 70 75 77 75 77 80 81 79 81 81 80
115 99 87 109 125 98 128 117 118 118 126 119 115 131 179 206 136 104 89 74 63 52 47 36 37 39 42 47 53 61 63 62 62 63 65 64 60 58 64 68 72 72 73 77 78 77 78 79 78
84 80 125 181 160 197 117 108 78 74 96 87 99 142 176 136 117 97 75 51 47 49 29 29 33 35 36 42 48 52 56 54 57 59 63 60 51 48 56 66 71 73 73 74 74 73 71 71 70
82 117 195 196 173 163 126 120 133 90 79 67 63 62 96 115 121 121 121 120 104 46 14 39 35 33 41 48 46 43 46 48 53 56 56 57 53 50 54 55 63 67 69 70 71 70 66 61 59
112 154 183 149 156 142 126 107 112 122 138 192 162 141 126 123 127 142 152 148 163 163 46 51 46 44 52 51 54 47 48 52 56 59 61 62 56 52 50 51 49 52 57 62 64 62 60 61 61
105 136 167 145 117 119 128 123 108 129 203 174 152 144 137 139 150 161 159 146 111 100 75 64 74 64 61 63 60 55 53 54 57 56 65 71 62 55 54 57 52 54 62 66 66 69 66 65 64
100 97 86 110 100 110 105 110 127 120 77 105 120 126 140 153 160 150 144 141 131 139 134 83 92 87 75 69 62 64 57 60 64 63 65 77 76 63 61 59 61 60 64 66 65 67 66 66 62
136 106 64 61 91 101 111 98 113 166 112 114 125 139 150 155 156 136 139 140 157 166 146 100 101 96 90 80 71 65 65 65 67 68 69 81 85 77 74 64 61 60 64 69 73 69 69 69 68
97 81 31 2 104 153 108 35 274 161 128 128 140 151 150 155 150 166 175 168 178 166 135 121 121 95 94 87 78 76 71 71 69 71 75 80 87 89 85 73 63 64 72 73 73 66 64 66 64
69 71 13 296 146 141 123 223 263 149 144 152 162 163 164 182 185 197 185 172 168 140 120 108 113 106 102 94 84 79 72 74 71 76 78 78 89 98 94 85 70 75 78 74 72 64 64 59 56
46 125 238 292 204 133 148 214 227 158 163 172 180 181 183 196 213 209 186 176 165 156 139 114 104 110 112 101 88 82 74 68 65 71 72 76 88 97 96 87 80 85 80 69 77 64 70 69 61
211 198 232 256 259 132 171 223 225 175 177 184 189 192 196 204 218 206 183 173 154 146 134 122 108 104 104 92 76 68 60 49 53 61 65 74 88 96 98 90 86 91 82 66 68 73 61 65 62
167 172 223 256 214 148 203 235 240 186 180 190 196 197 206 218 222 181 172 162 143 137 135 131 121 116 111 96 96 91 72 39 30 40 58 74 87 95 99 87 85 92 99 107 99 87 74 58 55
140 157 241 291 358 156 204 260 259 184 195 199 197 202 207 208 197 187 168 152 157 162 158 146 140 138 137 130 126 119 119 89 50 29 48 60 77 90 103 94 83 91 99 99 105 105 96 74 70
199 191 210 217 26 65 92 317 274 251 200 200 199 202 202 197 198 198 185 179 166 169 171 168 164 154 145 124 99 81 66 52 40 28 23 26 67 88 97 107 107 99 110 138 145 138 132 143 80
248 227 196 175 129 263 173 262 277 249 243 225 218 209 209 204 194 189 187 186 189 195 174 155 153 149 145 139 137 133 130 131 202 227 359 23 56 76 93 107 111 115 110 126 166 147 144 139 149
219 126 137 158 155 331 328 204 282 278 245 241 228 218 213 204 193 193 196 195 192 180 163 151 139 139 144 152 157 147 140 151 126 88 72 38 25 44 64 100 116 117 127 150 119 113 134 143 155
134 76 59 52 77 281 240 191 273 236 223 233 224 218 211 202 197 199 198 184 176 165 155 151 151 159 157 156 158 161 160 154 134 120 111 23 3 6 22 73 134 151 136 149 151 137 137 156 152
83 89 34 356 0 257 247 199 251 249 226 217 216 213 208 197 191 194 190 187 185 182 178 171 167 183 185 174 176 185 183 175 175 180 185 183 208 260 268 201 199 197 189 173 148 135 144 162 160
163 144 162 206 229 275 292 234 254 261 252 221 210 200 189 189 193 198 201 194 194 194 186 182 183 194 196 194 199 195 189 187 196 194 191 196 207 224 232 212 214 225 194 180 148 136 185 152 177
140 163 167 141 166 264 281 290 301 287 8 160 178 176 190 192 194 200 201 196 196 197 194 191 189 194 198 202 201 198 193 194 206 205 194 203 214 218 201 204 221 226 196 176 148 163 211 162 182
138 142 109 127 160 256 289 279 256 263 262 239 203 204 210 199 197 199 195 195 199 200 197 189 189 197 201 198 205 204 202 203 202 195 197 201 210 209 182 197 216 220 206 162 150 181 210 159 208
104 106 109 119 150 167 259 273 235 226 228 221 222 212 205 195 196 199 199 196 189 179 175 177 181 182 192 202 204 200 203 198 188 192 206 206 196 193 202 209 205 208 212 193 175 195 182 183 236
182 166 147 155 208 178 194 264 283 243 236 217 222 217 204 198 194 192 189 175 169 170 169 173 176 179 194 195 184 191 188 178 183 198 210 202 201 198 209 206 198 210 213 199 190 197 188 197 225
Height
1490 1490 1490 1491 1495 1508 1511 1508 1504 1503 1503 1504 1503 1504 1506 1509 1512 1517 1514 1511 1511 1510 1510 1509 1508 1508 1507 1506 1506 1505 1504 1504 1503 1503 1502 1501 1500 1500 1500 1500 1500 1500 1500 1501 1502 1502 1504 1505 1505
1490 1490 1492 1492 1504 1518 1515 1507 1505 1504 1504 1505 1505 1506 1507 1509 1511 1512 1512 1512 1512 1511 1511 1510 1510 1509 1508 1508 1507 1506 1506 1505 1505 1504 1503 1502 1501 1499 1499 1500 1501 1502 1502 1503 1504 1504 1505 1506 1506
1491 1491 1493 1497 1508 1515 1512 1506 1505 1504 1505 1505 1507 1508 1510 1511 1512 1512 1513 1512 1513 1512 1512 1512 1511 1510 1510 1509 1508 1508 1507 1507 1506 1505 1504 1503 1500 1497 1497 1500 1502 1503 1504 1505 1506 1506 1507 1507 1508
1492 1493 1495 1504 1510 1508 1506 1505 1504 1505 1506 1506 1508 1510 1512 1513 1513 1514 1513 1514 1514 1514 1513 1513 1513 1512 1512 1511 1510 1510 1509 1508 1508 1507 1506 1504 1501 1496 1496 1500 1503 1505 1506 1507 1508 1508 1509 1509 1509
1492 1494 1503 1511 1510 1507 1505 1504 1505 1506 1507 1508 1509 1511 1513 1514 1514 1515 1515 1515 1515 1515 1515 1514 1514 1514 1513 1513 1512 1512 1511 1510 1510 1509 1508 1507 1504 1502 1501 1503 1505 1507 1508 1509 1509 1510 1510 1510 1511
1494 1497 1512 1517 1511 1507 1505 1505 1506 1507 1509 1510 1511 1512 1515 1515 1516 1516 1516 1516 1517 1517 1516 1516 1516 1515 1515 1515 1514 1514 1513 1512 1512 1511 1510 1509 1508 1507 1506 1507 1508 1509 1510 1510 1511 1511 1512 1512 1513
1496 1503 1512 1514 1513 1509 1507 1507 1507 1508 1509 1511 1511 1513 1515 1516 1517 1517 1517 1518 1518 1518 1518 1518 1517 1517 1517 1516 1516 1516 1515 1515 1514 1514 1513 1512 1511 1511 1510 1511 1511 1511 1512 1512 1513 1513 1513 1514 1514
1496 1504 1511 1514 1513 1511 1507 1507 1508 1509 1510 1512 1513 1513 1515 1516 1517 1518 1518 1519 1519 1519 1519 1519 1519 1519 1519 1518 1518 1518 1517 1517 1516 1516 1515 1514 1514 1513 1513 1513 1513 1513 1514 1514 1514 1515 1515 1515 1515
1498 1508 1515 1512 1512 1510 1507 1508 1509 1510 1511 1512 1513 1514 1515 1516 1517 1518 1519 1520 1520 1521 1521 1521 1521 1520 1520 1520 1520 1519 1519 1519 1518 1518 1517 1517 1516 1515 1515 1516 1516 1516 1515 1516 1516 1516 1516 1517 1517
1500 1512 1510 1506 1506 1507 1507 1508 1510 1511 1512 1513 1514 1514 1516 1517 1518 1519 1520 1520 1521 1521 1522 1522 1522 1522 1521 1521 1521 1521 1521 1520 1520 1519 1519 1519 1518 1518 1517 1517 1517 1517 1517 1517 1517 1518 1518 1518 1518
1501 1507 1505 1504 1505 1506 1507 1509 1510 1511 1514 1513 1513 1514 1516 1517 1519 1520 1521 1522 1522 1523 1523 1523 1523 1523 1523 1523 1523 1523 1522 1522 1522 1522 1521 1521 1520 1520 1519 1519 1519 1519 1519 1518 1518 1519 1519 1519 1520
1502 1504 1504 1504 1505 1506 1507 1509 1511 1512 1513 1513 1513 1514 1516 1517 1519 1520 1521 1523 1524 1524 1524 1525 1525 1525 1525 1525 1525 1524 1524 1524 1523 1523 1523 1523 1522 1522 1522 1521 1521 1521 1521 1521 1521 1521 1521 1521 1521
1503 1505 1505 1505 1506 1507 1508 1510 1511 1513 1513 1513 1514 1515 1517 1518 1520 1521 1522 1523 1524 1525 1525 1526 1526 1526 1526 1526 1526 1526 1526 1526 1526 1525 1525 1525 1525 1524 1524 1524 1523 1523 1523 1522 1522 1522 1522 1522 1523
1504 1505 1506 1506 1507 1508 1509 1511 1512 1513 1514 1514 1515 1516 1518 1519 1520 1521 1522 1523 1524 1525 1526 1526 1527 1527 1527 1527 1527 1527 1527 1527 1527 1527 1527 1527 1527 1526 1526 1525 1525 1525 1524 1524 1524 1524 1524 1524 1525
1504 1507 1508 1508 1508 1509 1510 1514 1513 1513 1514 1515 1516 1517 1518 1520 1521 1522 1523 1524 1525 1525 1526 1526 1527 1528 1528 1528 1528 1528 1529 1529 1528 1528 1528 1528 1528 1528 1528 1527 1527 1527 1526 1526 1526 1525 1525 1526 1527
1506 1511 1516 1510 1508 1509 1514 1521 1514 1514 1514 1515 1516 1517 1519 1520 1521 1522 1524 1524 1525 1526 1526 1527 1527 1528 1528 1529 1529 1529 1530 1530 1530 1530 1530 1530 1530 1530 1529 1529 1528 1528 1528 1528 1527 1527 1527 1527 1528
1513 1519 1518 1513 1508 1509 1513 1517 1513 1513 1514 1515 1516 1517 1518 1520 1521 1522 1523 1524 1525 1526 1526 1527 1528 1528 1529 1530 1530 1530 1530 1531 1531 1531 1531 1531 1531 1531 1531 1530 1530 1530 1530 1529 1529 1529 1529 1529 1529
1518 1518 1517 1515 1509 1510 1513 1514 1512 1513 1514 1515 1516 1517 1518 1519 1521 1522 1523 1524 1525 1526 1527 1527 1528 1529 1529 1530 1530 1531 1531 1531 1531 1532 1532 1532 1532 1532 1532 1532 1531 1531 1531 1531 1531 1530 1530 1530 1531
1509 1514 1517 1513 1508 1511 1514 1514 1513 1512 1514 1514 1516 1517 1517 1518 1520 1522 1523 1524 1525 1526 1527 1527 1528 1529 1529 1530 1530 1530 1531 1531 1532 1532 1532 1533 1533 1533 1532 1532 1532 1532 1532 1532 1532 1532 1532 1532 1532
1508 1514 1516 1512 1509 1511 1514 1515 1512 1511 1512 1512 1513 1515 1516 1517 1519 1520 1522 1523 1524 1525 1526 1527 1528 1528 1529 1530 1530 1531 1531 1532 1532 1533 1533 1533 1533 1533 1533 1533 1533 1533 1532 1532 1532 1532 1532 1533 1533
1509 1512 1513 1514 1512 1512 1515 1518 1514 1511 1511 1511 1512 1513 1514 1515 1517 1518 1520 1521 1523 1524 1525 1526 1527 1528 1529 1530 1530 1531 1531 1532 1532 1532 1533 1533 1533 1533 1533 1533 1533 1533 1533 1533 1533 1533 1533 1533 1534
1511 1505 1507 1510 1517 1523 1518 1530 1517 1512 1511 1510 1510 1511 1512 1513 1515 1517 1518 1520 1521 1523 1524 1526 1527 1528 1529 1529 1530 1530 1530 1531 1531 1532 1533 1533 1533 1533 1533 1533 1533 1533 1533 1533 1533 1533 1533 1533 1534
1505 1503 1506 1510 1516 1523 1522 1528 1522 1513 1512 1509 1507 1508 1509 1511 1513 1515 1517 1518 1520 1522 1524 1525 1526 1527 1528 1529 1529 1529 1530 1531 1531 1532 1533 1533 1533 1533 1533 1533 1533 1533 1533 1533 1533 1533 1533 1533 1533
1501 1506 1511 1517 1523 1531 1523 1528 1524 1515 1508 1505 1504 1505 1506 1509 1511 1513 1516 1517 1519 1521 1522 1524 1525 1526 1527 1528 1528 1529 1529 1530 1530 1531 1531 1532 1532 1533 1533 1533 1532 1532 1532 1532 1533 1533 1533 1533 1533
1503 1516 1530 1532 1538 1534 1521 1524 1520 1505 1501 1501 1501 1502 1504 1506 1509 1512 1514 1515 1517 1519 1520 1522 1523 1524 1525 1526 1527 1527 1528 1529 1529 1530 1530 1531 1531 1531 1532 1532 1532 1532 1532 1532 1532 1532 1532 1532 1532
1505 1513 1529 1537 1539 1533 1523 1524 1512 1500 1498 1497 1498 1500 1502 1505 1507 1509 1511 1513 1515 1517 1518 1520 1521 1522 1523 1524 1525 1526 1526 1527 1528 1528 1529 1529 1530 1530 1531 1531 1531 1531 1531 1531 1531 1531 1531 1531 1531
1506 1512 1512 1526 1529 1533 1527 1519 1506 1498 1497 1497 1498 1499 1500 1502 1505 1507 1509 1511 1513 1514 1516 1517 1519 1520 1521 1522 1523 1523 1524 1525 1526 1527 1527 1528 1528 1529 1529 1529 1530 1530 1530 1530 1530 1530 1530 1530 1530
1500 1507 1518 1525 1533 1536 1528 1522 1515 1502 1499 1498 1498 1498 1499 1501 1503 1505 1507 1509 1511 1512 1514 1515 1517 1518 1519 1520 1520 1521 1522 1523 1524 1524 1525 1526 1526 1527 1527 1527 1528 1528 1528 1528 1528 1528 1528 1528 1528
1505 1509 1515 1524 1526 1534 1534 1524 1502 1499 1497 1497 1496 1496 1497 1499 1501 1503 1505 1507 1509 1510 1511 1513 1514 1515 1516 1517 1518 1519 1519 1520 1521 1522 1523 1523 1524 1525 1525 1525 1525 1526 1526 1526 1526 1526 1526 1526 1526
1498 1503 1511 1521 1525 1529 1531 1523 1495 1495 1494 1494 1494 1495 1496 1498 1499 1501 1503 1505 1506 1508 1509 1510 1512 1513 1514 1515 1515 1516 1517 1518 1519 1519 1520 1521 1521 1522 1523 1523 1523 1524 1524 1524 1524 1524 1524 1524 1524